Showing default

NORBI, 46494

Orbit data source: Space-Track

NORBI, 46494 is a payload satellite owned by Novosibirsk SU (CIS) in SSO that was launched on Mon, 28 Sep 2020 UTC via a SOYUZ-2-1B launch vehicle from the Plesetsk Missile And Space Complex (PKMTR). Payload-class satellites include a variety of spacecraft equipped with specific instruments for various scientific and technological missions. These include communications satellites like Starlink; space stations such as the ISS; scientific satellites like the Hubble; Earth observation satellites from companies like Planet Labs, Umbra, and HawkEye 360; GPS; miniature CubeSats for education and research; and military/defense satellites.

Loading next visibility...
Identifier
46494, 2020-068J
Orbit
SSO
Country
Flag of CISCIS
Related business
Manufacturer
Novosibirsk SU
Mission
Operational Amateur Science
Bus & Motor
CUBESAT 6U, Unknown motor
Mass
~10 kg wet, ~10 kg dry
Launch date (UTC)
2020-09-28 (5 years ago)
Launch vehicle
SOYUZ-2-1B
Launch site
Plesetsk Missile And Space Complex (PKMTR)
Object type
Payload
Rocket body
Debris
Shape & HBR
Box + 2 Pan, Unknown HBR
Radar Cross Section
0.035 m², Small (<0.1 m²)

Expand to show TLE details & history
Last TLE update: 6 hours ago

TLE from 6 hours ago
0 NORBI
1 46494U 20068J   25288.91614664  .00026151  00000-0  74923-3 0  9998
2 46494  97.8665 280.6433 0011400  65.1780 295.0647 15.35836806278554
Epoch: 2025-10-15T21:59Z
TLE epoch observation values (Epoch: 2025-10-15T21:59:15.069Z)
Latitude
-0.00001°
Longitude
-73.85285°
Altitude
458.239 km
Speed
7.64 km/s
True Right ascension
18h 42m 34s
True Declination
0° 00' 00"
Sunlit
Object was in daylight at epoch
Visualization orbit readout
Latitude
Unknown
Longitude
Unknown
Altitude
Unknown
Speed
Unknown
Apparent Right ascension
Unknown
Apparent Declination
Unknown
Sunlit
N/A
Visualization observer readout
Local Sidereal Time
22:25:37
Azimuth
Unknown
Elevation
Unknown
Doppler factor
Unknown
Orbital elements
Apogee altitude
463.191 km
Perigee altitude
447.611 km
Semi-major axis
6,833.538 km
Eccentricity
0.00114
Inclination
97.8665°
RAAN
280.6433°
Arg. of periapsis
65.178°
True anomaly
294.9463°
Mean anomaly
295.0647°
Eccentric anomaly
295.00551°
Mean motion
3.84215 °/min
Orbital period
93.7 mins
BSTAR
0.00074923
Loading maneuver chart data...
Computing Atmospheric mass density...
Loading historical data...
Loading historical data...
Loading historical data...
Loading historical data...
Loading historical data...
Loading historical data...
Loading historical data...

Documentation

Showing up to 5 results
|